When you browse on this site, cookies collect data to enhance your experience and personalize the content and advertising you see.
Visit our Privacy Policy to learn more. By continuing to use the site, you agree to this use of cookies and data.
  • In Österreich
  • Länderverzeichnis
  • Für 7 Tage
  • Wassertemperatur
  • Wetterkarte
  • News
  • Widgets
  • user-avatar
    Anmelden

    Stündliche Wetter Ho-Chi-Minh-Stadt

    Heute, 22 Januar, Mittwoch

    Zeit Temperatur Niederschläge Wind Luftdruck Luftfeuchtigkeit
    00:00 +27°C° 0 mm 3 m/S 760 mmHg 66%
    01:00 +27°C° 0 mm 2 m/S 760 mmHg 65%
    02:00 +26°C° 0 mm 2 m/S 760 mmHg 67%
    03:00 +26°C° 0 mm 2 m/S 760 mmHg 70%
    04:00 +26°C° 0 mm 2 m/S 759 mmHg 72%
    05:00 +26°C° 0 mm 2 m/S 759 mmHg 72%
    06:00 +26°C° 0 mm 2 m/S 760 mmHg 72%
    07:00 +26°C° 0 mm 2 m/S 760 mmHg 70%
    08:00 +28°C° 0 mm 2 m/S 760 mmHg 61%
    09:00 +31°C° 0 mm 2 m/S 761 mmHg 52%
    10:00 +34°C° 0 mm 2 m/S 761 mmHg 44%
    11:00 +36°C° 0 mm 2 m/S 760 mmHg 40%
    12:00 +37°C° 0 mm 2 m/S 759 mmHg 37%
    13:00 +38°C° 0 mm 2 m/S 758 mmHg 35%
    14:00 +37°C° 0 mm 3 m/S 758 mmHg 39%
    15:00 +36°C° 0 mm 4 m/S 757 mmHg 43%
    16:00 +35°C° 0 mm 5 m/S 757 mmHg 47%
    17:00 +33°C° 0 mm 5 m/S 757 mmHg 54%
    18:00 +30°C° 0 mm 5 m/S 758 mmHg 61%
    19:00 +29°C° 0 mm 4 m/S 758 mmHg 66%
    20:00 +28°C° 0 mm 4 m/S 759 mmHg 67%
    21:00 +28°C° 0 mm 4 m/S 759 mmHg 68%
    22:00 +27°C° 0 mm 4 m/S 760 mmHg 69%
    23:00 +27°C° 0 mm 4 m/S 759 mmHg 70%

    Morgen, 23 Januar, Donnerstag

    Zeit Temperatur Niederschläge Wind Luftdruck Luftfeuchtigkeit
    00:00 +27°C° 0 mm 3 m/S 759 mmHg 71%
    01:00 +26°C° 0 mm 3 m/S 759 mmHg 72%
    02:00 +26°C° 0 mm 3 m/S 758 mmHg 73%
    03:00 +26°C° 0 mm 2 m/S 758 mmHg 74%
    04:00 +25°C° 0 mm 2 m/S 758 mmHg 75%
    05:00 +25°C° 0 mm 2 m/S 758 mmHg 75%
    06:00 +25°C° 0 mm 2 m/S 759 mmHg 75%
    07:00 +25°C° 0 mm 2 m/S 759 mmHg 75%
    08:00 +27°C° 0 mm 2 m/S 759 mmHg 66%
    09:00 +30°C° 0 mm 2 m/S 759 mmHg 57%
    10:00 +33°C° 0 mm 3 m/S 760 mmHg 48%
    11:00 +35°C° 0 mm 2 m/S 759 mmHg 43%
    12:00 +36°C° 0 mm 2 m/S 758 mmHg 39%
    13:00 +38°C° 0 mm 2 m/S 757 mmHg 34%
    14:00 +37°C° 0 mm 3 m/S 757 mmHg 35%
    15:00 +36°C° 0 mm 4 m/S 756 mmHg 36%
    16:00 +36°C° 0 mm 4 m/S 756 mmHg 37%
    17:00 +34°C° 0 mm 4 m/S 756 mmHg 44%
    18:00 +30°C° 0 mm 4 m/S 757 mmHg 50%
    19:00 +28°C° 0 mm 4 m/S 757 mmHg 57%
    20:00 +28°C° 0 mm 4 m/S 758 mmHg 60%
    21:00 +27°C° 0 mm 4 m/S 758 mmHg 63%
    22:00 +27°C° 0 mm 4 m/S 759 mmHg 66%
    23:00 +27°C° 0 mm 4 m/S 759 mmHg 67%

    übermorgen, 24 Januar, Freitag

    Zeit Temperatur Niederschläge Wind Luftdruck Luftfeuchtigkeit
    00:00 +26°C° 0 mm 3 m/S 759 mmHg 69%
    01:00 +26°C° 0 mm 3 m/S 759 mmHg 71%
    02:00 +26°C° 0 mm 3 m/S 758 mmHg 72%
    03:00 +25°C° 0 mm 2 m/S 758 mmHg 74%
    04:00 +25°C° 0 mm 2 m/S 758 mmHg 75%
    05:00 +25°C° 0 mm 2 m/S 758 mmHg 74%
    06:00 +25°C° 0 mm 2 m/S 759 mmHg 74%
    07:00 +25°C° 0 mm 2 m/S 760 mmHg 73%
    08:00 +27°C° 0 mm 2 m/S 760 mmHg 63%
    09:00 +30°C° 0 mm 2 m/S 760 mmHg 53%
    10:00 +33°C° 0 mm 3 m/S 760 mmHg 42%
    11:00 +35°C° 0 mm 3 m/S 759 mmHg 38%
    12:00 +36°C° 0 mm 2 m/S 758 mmHg 34%
    13:00 +38°C° 0 mm 2 m/S 758 mmHg 29%
    14:00 +37°C° 0 mm 3 m/S 757 mmHg 31%
    15:00 +37°C° 0 mm 3 m/S 756 mmHg 33%
    16:00 +36°C° 0 mm 4 m/S 756 mmHg 34%
    17:00 +34°C° 0 mm 4 m/S 756 mmHg 45%
    18:00 +30°C° 0 mm 4 m/S 756 mmHg 55%
    19:00 +28°C° 0 mm 4 m/S 757 mmHg 66%
    20:00 +28°C° 0 mm 4 m/S 757 mmHg 68%
    21:00 +27°C° 0 mm 4 m/S 758 mmHg 70%
    22:00 +27°C° 0 mm 4 m/S 758 mmHg 72%
    23:00 +26°C° 0 mm 4 m/S 758 mmHg 75%

    25 Januar, Samstag

    Zeit Temperatur Niederschläge Wind Luftdruck Luftfeuchtigkeit
    00:00 +26°C° 0 mm 4 m/S 758 mmHg 78%
    01:00 +26°C° 0 mm 4 m/S 758 mmHg 81%
    02:00 +26°C° 0 mm 4 m/S 757 mmHg 81%
    03:00 +26°C° 0 mm 3 m/S 757 mmHg 81%
    04:00 +25°C° 0 mm 3 m/S 757 mmHg 82%
    05:00 +26°C° 0 mm 2 m/S 757 mmHg 81%
    06:00 +26°C° 0 mm 2 m/S 758 mmHg 80%
    07:00 +26°C° 0 mm 2 m/S 758 mmHg 80%
    08:00 +28°C° 0 mm 2 m/S 759 mmHg 70%
    09:00 +30°C° 0 mm 2 m/S 759 mmHg 60%
    10:00 +33°C° 0 mm 3 m/S 759 mmHg 50%
    11:00 +35°C° 0 mm 3 m/S 758 mmHg 45%
    12:00 +36°C° 0 mm 3 m/S 757 mmHg 41%
    13:00 +38°C° 0 mm 3 m/S 757 mmHg 36%
    14:00 +37°C° 0 mm 4 m/S 756 mmHg 39%
    15:00 +36°C° 0 mm 5 m/S 755 mmHg 43%
    16:00 +35°C° 0 mm 6 m/S 755 mmHg 47%
    17:00 +33°C° 0 mm 5 m/S 755 mmHg 57%
    18:00 +30°C° 0 mm 4 m/S 756 mmHg 66%
    19:00 +28°C° 0 mm 4 m/S 756 mmHg 76%
    20:00 +27°C° 0 mm 4 m/S 757 mmHg 79%
    21:00 +27°C° 0 mm 3 m/S 757 mmHg 83%
    22:00 +26°C° 0 mm 3 m/S 758 mmHg 86%
    23:00 +26°C° 0 mm 3 m/S 757 mmHg 88%

    26 Januar, Sonntag

    Zeit Temperatur Niederschläge Wind Luftdruck Luftfeuchtigkeit
    00:00 +26°C° 0 mm 3 m/S 757 mmHg 89%
    01:00 +25°C° 0 mm 2 m/S 757 mmHg 91%
    02:00 +25°C° 0 mm 2 m/S 757 mmHg 91%
    03:00 +25°C° 0 mm 1 m/S 757 mmHg 92%
    04:00 +25°C° 0 mm 1 m/S 757 mmHg 92%
    05:00 +25°C° 0 mm 1 m/S 757 mmHg 91%
    06:00 +25°C° 0 mm 1 m/S 758 mmHg 90%
    07:00 +25°C° 0 mm 1 m/S 758 mmHg 88%
    08:00 +28°C° 0 mm 1 m/S 758 mmHg 77%
    09:00 +30°C° 0 mm 1 m/S 758 mmHg 66%
    10:00 +32°C° 0 mm 1 m/S 759 mmHg 55%
    11:00 +34°C° 0 mm 2 m/S 758 mmHg 50%
    12:00 +36°C° 0 mm 2 m/S 757 mmHg 44%
    13:00 +37°C° 0 mm 2 m/S 756 mmHg 39%
    14:00 +37°C° 0 mm 3 m/S 756 mmHg 41%
    15:00 +36°C° 0 mm 3 m/S 755 mmHg 43%
    16:00 +35°C° 0 mm 4 m/S 755 mmHg 44%
    17:00 +33°C° 0 mm 4 m/S 755 mmHg 53%
    18:00 +30°C° 0 mm 4 m/S 756 mmHg 62%
    19:00 +28°C° 0 mm 4 m/S 756 mmHg 70%
    20:00 +27°C° 0 mm 3 m/S 757 mmHg 75%
    21:00 +27°C° 0 mm 3 m/S 757 mmHg 79%
    22:00 +26°C° 0 mm 3 m/S 758 mmHg 83%
    23:00 +26°C° 0 mm 2 m/S 757 mmHg 85%

    27 Januar, Montag

    Zeit Temperatur Niederschläge Wind Luftdruck Luftfeuchtigkeit
    00:00 +25°C° 0 mm 2 m/S 757 mmHg 88%
    01:00 +25°C° 0 mm 2 m/S 757 mmHg 90%
    02:00 +25°C° 0 mm 1 m/S 757 mmHg 91%
    03:00 +24°C° 0 mm 1 m/S 756 mmHg 92%
    04:00 +24°C° 0 mm 1 m/S 756 mmHg 92%
    05:00 +24°C° 0 mm 1 m/S 757 mmHg 91%
    06:00 +25°C° 0 mm 1 m/S 757 mmHg 90%
    07:00 +25°C° 0 mm 1 m/S 757 mmHg 88%
    08:00 +27°C° 0 mm 1 m/S 758 mmHg 76%
    09:00 +30°C° 0 mm 2 m/S 758 mmHg 64%
    10:00 +33°C° 0 mm 3 m/S 758 mmHg 52%
    11:00 +34°C° 0 mm 4 m/S 757 mmHg 49%
    12:00 +35°C° 0 mm 4 m/S 757 mmHg 46%
    13:00 +36°C° 0 mm 5 m/S 756 mmHg 44%
    14:00 +35°C° 0 mm 5 m/S 755 mmHg 46%
    15:00 +34°C° 0 mm 5 m/S 755 mmHg 49%
    16:00 +34°C° 0 mm 6 m/S 755 mmHg 52%
    17:00 +32°C° 0 mm 5 m/S 755 mmHg 60%
    18:00 +29°C° 0 mm 5 m/S 755 mmHg 69%
    19:00 +27°C° 0 mm 4 m/S 755 mmHg 77%
    20:00 +27°C° 0 mm 4 m/S 756 mmHg 80%
    21:00 +26°C° 0 mm 4 m/S 757 mmHg 83%
    22:00 +26°C° 0 mm 4 m/S 758 mmHg 85%
    23:00 +26°C° 0 mm 3 m/S 757 mmHg 87%
    Mehr zeigen